Location: Ecklingerode
(51.5036°N, 10.3122°E)
Time: 01:45:38
(UTC+00:00)

SMAP - Pass Details

Date: 29 October 2020
Orbit: 681 x 683 km, 98.1° (Epoch: 23 November)

Event Time Altitude Azimuth Distance (km) Brightness Sun altitude
Rises 16:23:49 0° 160° (SSE) 3,035 6.4 -4.9°
Reaches altitude 10° 16:26:02 10° 160° (SSE) 2,124 5.6 -5.2°
Maximum altitude 16:30:41 81° 74° (ENE) 699 3.1 -5.9°
Drops below altitude 10° 16:35:22 10° 347° (NNW) 2,139 5.6 -6.6°
Sets 16:37:37 0° 347° (NNW) 3,059 6.4 -6.9°
